• In Belarus
  • List of Countries
  • For 7 days
  • Water Temperature
  • Satellite Maps
  • Weather Map
  • Weather Widgets
  • user-avatar
    Login

    Hourly Weather Ignatovo 2-e

    Today, 20 March, Wednesday

    Time Temperature Precipitation Wind Pressure Humidity
    00:00 -1°C° 0 mm 3 mps 751 mmHg 93%
    01:00 -1°C° 0 mm 3 mps 751 mmHg 93%
    02:00 -1°C° 0 mm 3 mps 751 mmHg 93%
    03:00 -1°C° 0 mm 3 mps 751 mmHg 93%
    04:00 -2°C° 0 mm 3 mps 751 mmHg 94%
    05:00 -2°C° 0 mm 3 mps 751 mmHg 94%
    06:00 -2°C° 0 mm 3 mps 751 mmHg 94%
    07:00 -2°C° 0 mm 3 mps 752 mmHg 93%
    08:00 -1°C° 0 mm 3 mps 752 mmHg 92%
    09:00 -1°C° 0 mm 3 mps 752 mmHg 91%
    10:00 -1°C° 0 mm 4 mps 752 mmHg 89%
    11:00 0°C° 0 mm 4 mps 752 mmHg 88%
    12:00 0°C° 0 mm 4 mps 752 mmHg 87%
    13:00 0°C° 0 mm 4 mps 753 mmHg 86%
    14:00 +1°C° 0 mm 3 mps 753 mmHg 84%
    15:00 +1°C° 0 mm 3 mps 753 mmHg 83%
    16:00 +1°C° 0.1 mm 3 mps 753 mmHg 84%
    17:00 +1°C° 0.1 mm 3 mps 753 mmHg 84%
    18:00 +1°C° 0.1 mm 3 mps 753 mmHg 85%
    19:00 0°C° 0 mm 3 mps 753 mmHg 87%
    20:00 -1°C° 0 mm 3 mps 753 mmHg 89%
    21:00 -1°C° 0 mm 3 mps 753 mmHg 91%
    22:00 -2°C° 0 mm 3 mps 753 mmHg 92%
    23:00 -2°C° 0 mm 3 mps 753 mmHg 92%

    Tomorrow, 21 March, Thursday

    Time Temperature Precipitation Wind Pressure Humidity
    00:00 -2°C° 0 mm 3 mps 752 mmHg 93%
    01:00 -2°C° 0 mm 3 mps 752 mmHg 93%
    02:00 -2°C° 0 mm 3 mps 752 mmHg 93%
    03:00 -2°C° 0 mm 3 mps 752 mmHg 92%
    04:00 -2°C° 0 mm 3 mps 751 mmHg 91%
    05:00 -2°C° 0 mm 3 mps 751 mmHg 90%
    06:00 -2°C° 0 mm 3 mps 750 mmHg 89%
    07:00 -2°C° 0 mm 3 mps 750 mmHg 88%
    08:00 -1°C° 0 mm 3 mps 750 mmHg 86%
    09:00 -2°C° 0 mm 4 mps 749 mmHg 85%
    10:00 -1°C° 0.1 mm 3 mps 749 mmHg 85%
    11:00 0°C° 0.1 mm 3 mps 749 mmHg 85%
    12:00 0°C° 0.1 mm 3 mps 749 mmHg 85%
    13:00 +1°C° 0.1 mm 3 mps 749 mmHg 85%
    14:00 +2°C° 0.1 mm 2 mps 749 mmHg 85%
    15:00 +3°C° 0.1 mm 2 mps 749 mmHg 85%
    16:00 +2°C° 0.2 mm 2 mps 750 mmHg 86%
    17:00 +1°C° 0.2 mm 3 mps 750 mmHg 87%
    18:00 +1°C° 0.2 mm 3 mps 750 mmHg 89%
    19:00 0°C° 0 mm 3 mps 750 mmHg 88%
    20:00 0°C° 0 mm 3 mps 750 mmHg 88%
    21:00 -1°C° 0 mm 3 mps 751 mmHg 87%
    22:00 -1°C° 0 mm 3 mps 751 mmHg 89%
    23:00 -1°C° 0 mm 2 mps 751 mmHg 91%

    Day after tomorrow, 22 March, Friday

    Time Temperature Precipitation Wind Pressure Humidity
    00:00 -1°C° 0 mm 2 mps 751 mmHg 92%
    01:00 -2°C° 0 mm 2 mps 751 mmHg 93%
    02:00 -2°C° 0 mm 2 mps 751 mmHg 94%
    03:00 -2°C° 0 mm 2 mps 750 mmHg 95%
    04:00 -2°C° 0 mm 2 mps 750 mmHg 95%
    05:00 -2°C° 0 mm 2 mps 750 mmHg 95%
    06:00 -3°C° 0 mm 2 mps 749 mmHg 94%
    07:00 -2°C° 0.1 mm 3 mps 749 mmHg 93%
    08:00 -1°C° 0.1 mm 3 mps 748 mmHg 91%
    09:00 -1°C° 0.1 mm 4 mps 748 mmHg 89%
    10:00 -1°C° 0.4 mm 4 mps 748 mmHg 90%
    11:00 0°C° 0.4 mm 4 mps 747 mmHg 90%
    12:00 0°C° 0.4 mm 4 mps 747 mmHg 90%
    13:00 +1°C° 0 mm 4 mps 746 mmHg 90%
    14:00 +1°C° 0 mm 4 mps 746 mmHg 90%
    15:00 +3°C° 0 mm 4 mps 746 mmHg 90%
    16:00 +1°C° 0 mm 4 mps 746 mmHg 87%
    17:00 +1°C° 0 mm 4 mps 746 mmHg 83%
    18:00 0°C° 0 mm 4 mps 746 mmHg 79%
    19:00 -1°C° 0 mm 4 mps 747 mmHg 78%
    20:00 -1°C° 0 mm 4 mps 747 mmHg 76%
    21:00 -2°C° 0 mm 5 mps 747 mmHg 74%
    22:00 -4°C° 0 mm 5 mps 748 mmHg 75%
    23:00 -4°C° 0 mm 5 mps 748 mmHg 77%

    23 March, Saturday

    Time Temperature Precipitation Wind Pressure Humidity
    00:00 -4°C° 0 mm 5 mps 748 mmHg 78%
    01:00 -4°C° 0 mm 5 mps 748 mmHg 80%
    02:00 -4°C° 0 mm 5 mps 749 mmHg 82%
    03:00 -5°C° 0 mm 5 mps 749 mmHg 84%
    04:00 -4°C° 0 mm 4 mps 749 mmHg 86%
    05:00 -4°C° 0 mm 4 mps 749 mmHg 88%
    06:00 -4°C° 0 mm 4 mps 750 mmHg 90%
    07:00 -4°C° 0 mm 3 mps 750 mmHg 88%
    08:00 -4°C° 0 mm 3 mps 750 mmHg 86%
    09:00 -2°C° 0 mm 3 mps 750 mmHg 84%
    10:00 -1°C° 0 mm 2 mps 750 mmHg 78%
    11:00 +1°C° 0 mm 2 mps 749 mmHg 72%
    12:00 +2°C° 0 mm 2 mps 749 mmHg 66%
    13:00 +2°C° 0 mm 2 mps 748 mmHg 65%
    14:00 +2°C° 0 mm 3 mps 748 mmHg 65%
    15:00 +3°C° 0 mm 3 mps 747 mmHg 64%
    16:00 +1°C° 0.1 mm 4 mps 746 mmHg 68%
    17:00 +1°C° 0.1 mm 4 mps 745 mmHg 72%
    18:00 +1°C° 0.1 mm 5 mps 744 mmHg 76%
    19:00 +1°C° 0.6 mm 5 mps 743 mmHg 81%
    20:00 +1°C° 0.6 mm 5 mps 742 mmHg 86%
    21:00 +1°C° 0.6 mm 5 mps 741 mmHg 92%
    22:00 +2°C° 0.2 mm 5 mps 740 mmHg 90%
    23:00 +2°C° 0.2 mm 5 mps 740 mmHg 89%

    24 March, Sunday

    Time Temperature Precipitation Wind Pressure Humidity
    00:00 +2°C° 0.2 mm 5 mps 740 mmHg 88%
    01:00 +1°C° 0 mm 5 mps 740 mmHg 87%
    02:00 0°C° 0 mm 5 mps 740 mmHg 85%
    03:00 -1°C° 0 mm 5 mps 740 mmHg 84%
    04:00 -2°C° 0 mm 5 mps 740 mmHg 79%
    05:00 -2°C° 0 mm 5 mps 740 mmHg 75%
    06:00 -4°C° 0 mm 5 mps 740 mmHg 71%
    07:00 -3°C° 0 mm 6 mps 740 mmHg 67%
    08:00 -2°C° 0 mm 7 mps 739 mmHg 63%
    09:00 -2°C° 0 mm 8 mps 739 mmHg 60%
    10:00 -1°C° 0 mm 8 mps 738 mmHg 59%
    11:00 -1°C° 0 mm 9 mps 738 mmHg 59%
    12:00 -1°C° 0 mm 9 mps 738 mmHg 58%
    13:00 -1°C° 0.1 mm 9 mps 738 mmHg 60%
    14:00 -1°C° 0.1 mm 9 mps 737 mmHg 61%
    15:00 0°C° 0.1 mm 9 mps 737 mmHg 63%
    16:00 -1°C° 0.1 mm 9 mps 737 mmHg 64%
    17:00 -1°C° 0.1 mm 8 mps 737 mmHg 65%
    18:00 -2°C° 0.1 mm 8 mps 738 mmHg 66%
    19:00 -2°C° 0 mm 7 mps 738 mmHg 67%
    20:00 -3°C° 0 mm 7 mps 738 mmHg 68%
    21:00 -4°C° 0 mm 7 mps 738 mmHg 69%
    22:00 -4°C° 0 mm 7 mps 738 mmHg 69%
    23:00 -4°C° 0 mm 7 mps 739 mmHg 70%

    25 March, Monday

    Time Temperature Precipitation Wind Pressure Humidity
    00:00 -4°C° 0 mm 7 mps 739 mmHg 70%
    01:00 -6°C° 0 mm 7 mps 739 mmHg 70%
    02:00 -6°C° 0 mm 7 mps 739 mmHg 69%
    03:00 -5°C° 0 mm 6 mps 739 mmHg 69%
    04:00 -5°C° 0 mm 6 mps 739 mmHg 69%
    05:00 -6°C° 0 mm 6 mps 739 mmHg 68%
    06:00 -6°C° 0 mm 5 mps 739 mmHg 68%
    07:00 -6°C° 0 mm 5 mps 739 mmHg 65%
    08:00 -5°C° 0 mm 5 mps 739 mmHg 63%
    09:00 -5°C° 0 mm 5 mps 739 mmHg 60%
    10:00 -3°C° 0 mm 4 mps 739 mmHg 57%
    11:00 -2°C° 0 mm 4 mps 739 mmHg 53%
    12:00 -1°C° 0 mm 4 mps 739 mmHg 49%
    13:00 0°C° 0 mm 4 mps 739 mmHg 49%
    14:00 +1°C° 0 mm 3 mps 738 mmHg 49%
    15:00 +2°C° 0 mm 3 mps 738 mmHg 48%
    16:00 +2°C° 0 mm 3 mps 738 mmHg 54%
    17:00 +1°C° 0 mm 3 mps 737 mmHg 60%
    18:00 +2°C° 0 mm 2 mps 737 mmHg 67%
    19:00 0°C° 0 mm 3 mps 737 mmHg 71%
    20:00 -1°C° 0 mm 3 mps 736 mmHg 76%
    21:00 -1°C° 0 mm 3 mps 736 mmHg 80%
    22:00 -1°C° 0 mm 3 mps 736 mmHg 82%
    23:00 -1°C° 0 mm 3 mps 735 mmHg 84%
    Show more